Location: Radom
(51.4061°N, 21.1577°E)
Time: 02:58:05
(UTC+01:00)

ISS - Visible Passes

Search period start: 25 February 2018 00:00
Search period end: 07 March 2018 00:00
Orbit: 402 x 407 km, 51.6° (Epoch: 25 February)

Date Brightness Start Highest point End Pass type
(mag) Time Alt. Az. Time Alt. Az. Time Alt. Az.
27 Feb -1.0 05:34:45 10° S 05:36:47 15° SE 05:38:49 10° ESE visible
01 Mar -1.9 05:25:35 10° SSW 05:28:25 27° SSE 05:31:15 10° E visible
02 Mar -1.4 04:34:13 11° S 04:36:18 18° SE 04:38:37 10° E visible
03 Mar -0.9 03:44:13 11° SE 03:44:15 11° SE 03:45:25 10° ESE visible
03 Mar -2.9 05:16:57 10° SW 05:20:06 45° SSE 05:23:16 10° E visible
04 Mar -2.4 04:26:47 24° S 04:27:53 31° SSE 04:30:50 10° E visible
05 Mar -1.4 03:36:35 19° ESE 03:36:35 19° ESE 03:38:16 10° E visible
05 Mar -3.6 05:09:14 15° WSW 05:11:49 69° SSE 05:15:06 10° E visible
06 Mar -3.3 04:18:58 44° SSW 04:19:31 50° SSE 04:22:43 10° E visible
